Location: Cherryland
(37.6794°N, 122.1033°W)
Time: 05:45:07
(UTC+00:00)

IRS-1D - Pass Details

Date: 14 December 2025
Orbit: 737 x 810 km, 98.8° (Epoch: 20 January)

Event Time Altitude Azimuth Distance (km) Brightness Sun altitude
Rises 13:52:40 0° 3° (N) 3,219 6.6 -15.9°
Reaches altitude 10° 13:55:07 10° 354° (N) 2,301 5.7 -15.5°
Maximum altitude 13:59:38 34° 291° (WNW) 1,258 4.1 -14.6°
Drops below altitude 10° 14:04:14 10° 228° (SW) 2,331 5.7 -13.8°
Sets 14:06:44 0° 219° (SW) 3,267 6.6 -13.3°
